GW1268 Weather Reports


Display with metric or nautical units.
time (UTC)temp
F
wind
direction
speed
MPH
gust
MPH
rain 1hr
in
rain 24hr
in
rain mn
in
humidity
%
barometer
mb
20260510223039 50 225 2.0 2.0 0.00 0.00 0.00 84 1039.0
20260510222038 50 225 2.0 2.0 0.00 0.00 0.00 83 1039.0
20260510221035 49 225 2.0 3.0 0.00 0.00 0.00 83 1039.0
20260510220034 49 225 2.0 2.0 0.00 0.00 0.00 83 1038.8
20260510212026 49 221 2.0 3.0 0.00 0.00 0.00 83 1038.2
20260510211023 48 242 2.0 4.0 0.00 0.00 0.00 83 1038.1
20260510210021 48 242 2.0 3.0 0.00 0.00 0.00 83 1038.1
20260510205020 48 243 2.0 3.0 0.00 0.00 0.00 83 1038.1
20260510204017 48 237 2.0 3.0 0.00 0.00 0.00 83 1037.8
20260510203016 47 230 2.0 2.0 0.00 0.00 0.00 83 1037.9
20260510202013 47 217 2.0 2.0 0.00 0.00 0.00 82 1037.8
20260510201011 47 214 1.0 2.0 0.00 0.00 0.00 82 1037.8
20260510200010 47 218 1.0 2.0 0.00 0.00 0.00 82 1037.8
20260510195008 46 214 1.0 2.0 0.00 0.00 0.00 82 1037.7
20260510194004 46 225 1.0 1.0 0.00 0.00 0.00 82 1037.6
20260510193004 46 225 1.0 1.0 0.00 0.00 0.00 82 1037.6
20260510191501 46 270 1.0 1.0 0.00 0.00 0.00 82 1037.5
20260510190500 46 270 1.0 1.0 0.00 0.00 0.00 82 1037.5
20260510185456 46 233 1.0 1.0 0.00 0.00 0.00 82 1037.4
20260510184455 46 0.0 1.0 0.00 0.00 0.00 82 1037.2
20260510183453 46 270 1.0 1.0 0.00 0.00 0.00 82 1037.0
20260510182450 46 0.0 1.0 0.00 0.00 0.00 82 1037.0
20260510181449 47 170 1.0 1.0 0.00 0.00 0.00 82 1037.0
20260510180446 47 144 1.0 1.0 0.00 0.00 0.00 82 1037.0
20260510175444 47 0.0 1.0 0.00 0.00 0.00 82 1036.8
20260510174442 47 143 1.0 1.0 0.00 0.00 0.00 82 1036.9
20260510173441 47 135 1.0 1.0 0.00 0.00 0.00 82 1036.9
20260510172438 47 135 1.0 1.0 0.00 0.00 0.00 82 1036.8
20260510171436 47 135 1.0 1.0 0.00 0.00 0.00 82 1036.7
20260510170434 48 0.0 1.0 0.00 0.00 0.00 82 1036.7
20260510164431 48 0.0 1.0 0.00 0.00 0.00 81 1036.9
20260510163429 48 0.0 1.0 0.00 0.00 0.00 81 1037.1
20260510161425 49 90 1.0 1.0 0.00 0.00 0.00 81 1037.0
20260510160423 49 90 1.0 1.0 0.00 0.00 0.00 81 1037.0
20260510155420 49 90 1.0 1.0 0.00 0.00 0.00 81 1037.1
20260510154419 49 90 1.0 1.0 0.00 0.00 0.00 81 1037.1
20260510153416 49 90 1.0 1.0 0.00 0.00 0.00 81 1037.0
20260510152414 49 90 1.0 2.0 0.00 0.00 0.00 81 1037.1
20260510151412 49 90 1.0 1.0 0.00 0.00 0.00 81 1037.1
20260510150410 50 90 1.0 1.0 0.00 0.00 0.00 81 1037.0
20260510145409 50 90 1.0 1.0 0.00 0.00 0.00 81 1036.9
20260510144406 50 90 1.0 1.0 0.00 0.00 0.00 81 1037.0
20260510142403 51 90 1.0 1.0 0.00 0.00 0.00 80 1037.0
20260510141400 51 90 1.0 1.0 0.00 0.00 0.00 80 1037.0
20260510140404 51 90 1.0 1.0 0.00 0.00 0.00 80 1037.0
20260510135356 51 90 1.0 1.0 0.00 0.00 0.00 80 1037.2
20260510134354 51 90 1.0 1.0 0.00 0.00 0.00 80 1037.1
20260510133352 51 90 1.0 1.0 0.00 0.00 0.00 80 1037.3
20260510132352 52 90 1.0 1.0 0.00 0.00 0.00 80 1037.2
20260510131349 52 90 1.0 1.0 0.00 0.00 0.00 80 1037.3
20260510125343 52 90 1.0 1.0 0.00 0.00 0.00 79 1037.5
20260510123340 53 90 1.0 1.0 0.00 0.00 0.00 79 1037.3
20260510122340 53 90 1.0 1.0 0.00 0.00 0.00 79 1037.5
20260510121338 53 90 1.0 1.0 0.00 0.00 0.00 79 1037.5
20260510120335 53 90 1.0 1.0 0.00 0.00 0.00 78 1037.3
20260510114331 54 90 1.0 2.0 0.00 0.00 0.00 78 1037.4
20260510112325 55 90 1.0 1.0 0.00 0.00 0.00 78 1037.0
20260510111324 55 90 1.0 1.0 0.00 0.00 0.00 77 1036.9
20260510110322 56 90 1.0 1.0 0.00 0.00 0.00 77 1036.9
20260510105321 56 90 1.0 1.0 0.00 0.00 0.00 77 1036.8
20260510104318 56 90 1.0 2.0 0.00 0.00 0.00 77 1036.7
20260510103317 57 90 1.0 1.0 0.00 0.00 0.00 77 1036.8
20260510101311 58 90 1.0 1.0 0.00 0.00 0.00 76 1036.8
20260510100309 58 90 1.0 1.0 0.00 0.00 0.00 76 1036.6
20260510095307 58 90 1.0 1.0 0.00 0.00 0.00 76 1036.5
20260510094306 59 90 1.0 1.0 0.00 0.00 0.00 76 1036.6
20260510093303 59 90 1.0 1.0 0.00 0.00 0.00 76 1036.5
20260510092306 60 90 1.0 1.0 0.00 0.00 0.00 75 1036.5
20260510091301 60 90 1.0 2.0 0.00 0.00 0.00 75 1036.3
20260510085256 60 90 1.0 2.0 0.00 0.00 0.00 75 1036.2
20260510083251 60 90 1.0 2.0 0.00 0.00 0.00 75 1036.1
20260510082251 60 90 1.0 2.0 0.00 0.00 0.00 74 1036.1
20260510080246 60 90 1.0 2.0 0.00 0.00 0.00 74 1035.8
20260510075244 60 90 1.0 2.0 0.00 0.00 0.00 74 1035.7
20260510073239 61 90 1.0 1.0 0.00 0.00 0.00 73 1035.6
20260510072240 61 90 1.0 1.0 0.00 0.00 0.00 73 1035.5
20260510071237 61 90 1.0 1.0 0.00 0.00 0.00 73 1035.4
20260510070234 61 90 1.0 1.0 0.00 0.00 0.00 73 1035.3
20260510064229 62 90 1.0 1.0 0.00 0.00 0.00 72 1035.3
20260510063228 62 90 1.0 2.0 0.00 0.00 0.00 72 1035.3
20260510062226 62 90 1.0 2.0 0.00 0.00 0.00 72 1035.3
20260510061225 63 90 1.0 1.0 0.00 0.00 0.00 72 1035.3
20260510060222 63 90 1.0 2.0 0.00 0.00 0.00 72 1035.4
20260510055219 63 90 1.0 2.0 0.00 0.00 0.00 72 1035.2
20260510054220 64 90 1.0 2.0 0.00 0.00 0.00 72 1035.2
20260510053216 64 90 1.0 2.0 0.00 0.00 0.00 72 1035.1
20260510052214 64 90 1.0 2.0 0.00 0.00 0.00 71 1035.2
20260510051213 64 90 1.0 2.0 0.00 0.00 0.00 71 1034.9
20260510050212 64 90 1.0 2.0 0.00 0.00 0.00 71 1034.9
20260510044205 64 90 1.0 1.0 0.00 0.00 0.00 71 1035.0
20260510043205 64 90 1.0 2.0 0.00 0.00 0.00 71 1035.0
20260510042202 64 90 1.0 2.0 0.00 0.00 0.00 71 1035.0
20260510041159 64 90 1.0 2.0 0.00 0.00 0.00 70 1035.2
20260510040159 64 90 1.0 2.0 0.00 0.00 0.00 70 1035.3
20260510035156 64 59 1.0 2.0 0.00 0.00 0.00 70 1035.2
20260510034155 65 67 1.0 2.0 0.00 0.00 0.00 71 1035.1
20260510033152 65 67 1.0 2.0 0.00 0.00 0.00 71 1035.3
20260510031149 65 90 1.0 2.0 0.00 0.00 0.00 73 1035.3
20260510030147 65 90 1.0 2.0 0.00 0.00 0.00 73 1035.4
20260510025145 65 59 1.0 2.0 0.00 0.00 0.00 74 1035.6
20260510024142 65 90 1.0 2.0 0.00 0.00 0.00 75 1035.8
20260510023141 65 90 1.0 2.0 0.00 0.00 0.00 75 1035.9
20260510022138 66 90 1.0 2.0 0.00 0.00 0.00 76 1036.0
20260510020134 63 90 1.0 2.0 0.00 0.00 0.00 78 1036.3
20260510015132 62 60 1.0 2.0 0.00 0.00 0.00 79 1036.6
20260510014131 62 51 1.0 2.0 0.00 0.00 0.00 79 1036.6
20260510013127 61 90 1.0 1.0 0.00 0.00 0.00 79 1036.7
20260510012128 61 90 1.0 2.0 0.00 0.00 0.00 80 1036.8
20260510010122 60 90 1.0 2.0 0.00 0.00 0.00 81 1036.7
20260510005120 60 90 1.0 2.0 0.00 0.00 0.00 81 1036.9
20260510004118 60 90 1.0 2.0 0.00 0.00 0.00 81 1036.9
20260510002114 60 90 1.0 2.0 0.00 0.00 0.00 82 1036.7
20260510001111 59 90 1.0 2.0 0.00 0.00 0.00 82 1036.6
20260510000110 59 90 1.0 2.0 0.00 0.00 0.00 82 1036.7
20260509235108 59 90 1.0 2.0 0.00 0.00 0.00 83 1036.5
20260509234107 58 90 1.0 2.0 0.00 0.00 0.00 83 1036.5
20260509232102 58 90 1.0 2.0 0.00 0.00 0.00 83 1036.6
20260509231100 58 90 1.0 2.0 0.00 0.00 0.00 83 1036.5
20260509230059 57 90 1.0 2.0 0.00 0.00 0.00 83 1036.3